Location: Eferding
(48.3167°N, 14.0167°E)
Time: 01:33:46
(UTC+00:00)

NOSS 3-1 (A) - Pass Details

Date: 12 November 2019
Orbit: 769 x 1443 km, 63.4° (Epoch: 09 December)

Event Time Altitude Azimuth Distance (km) Brightness Sun altitude
Rises 16:43:48 0° 173° (S) 3,282 6.4 -12.5°
Reaches altitude 10° 16:46:37 10° 158° (SSE) 2,412 5.5 -12.9°
Maximum altitude 16:50:43 21° 109° (ESE) 1,842 4.5 -13.6°
Enters shadow 16:52:22 19° 87° (E) 2,002 4.5 -13.9°
